TimeEDT,TemperatureF,Dew PointF,Humidity,Sea Level PressureIn,VisibilityMPH,Wind Direction,Wind SpeedMPH,Gust SpeedMPH,PrecipitationIn,Events,Conditions,WindDirDegrees,DateUTC
12:54 AM,70.0,66.0,87,29.90,9.0,Calm,Calm,-,N/A,,Partly Cloudy,0,2013-05-22 04:54:00
1:54 AM,69.1,66.0,90,29.89,7.0,Calm,Calm,-,N/A,,Clear,0,2013-05-22 05:54:00
2:54 AM,68.0,64.9,90,29.88,5.0,Calm,Calm,-,N/A,,Clear,0,2013-05-22 06:54:00
3:54 AM,66.9,64.9,93,29.86,4.0,Calm,Calm,-,N/A,,Clear,0,2013-05-22 07:54:00
4:54 AM,66.9,64.9,93,29.86,4.0,Calm,Calm,-,N/A,,Clear,0,2013-05-22 08:54:00
5:44 AM,66.2,64.4,94,29.88,2.5,Calm,Calm,-,N/A,,Scattered Clouds,0,2013-05-22 09:44:00
5:51 AM,66.2,64.4,94,29.88,1.8,Calm,Calm,-,N/A,,Mostly Cloudy,0,2013-05-22 09:51:00
5:54 AM,66.9,64.9,93,29.88,1.8,Calm,Calm,-,N/A,,Mostly Cloudy,0,2013-05-22 09:54:00
6:12 AM,68.0,66.2,94,29.89,2.0,Calm,Calm,-,N/A,,Overcast,0,2013-05-22 10:12:00
6:54 AM,70.0,66.9,90,29.89,3.0,SW,4.6,-,N/A,,Overcast,220,2013-05-22 10:54:00
7:06 AM,69.8,68.0,94,29.89,2.5,Calm,Calm,-,N/A,,Overcast,0,2013-05-22 11:06:00
7:38 AM,71.6,68.0,88,29.90,3.0,SW,3.5,-,N/A,,Overcast,230,2013-05-22 11:38:00
7:54 AM,71.1,68.0,90,29.91,3.0,SW,4.6,-,N/A,,Overcast,230,2013-05-22 11:54:00
8:54 AM,72.0,68.0,87,29.91,4.0,WSW,6.9,-,N/A,,Overcast,240,2013-05-22 12:54:00
9:54 AM,73.0,69.1,87,29.91,5.0,Variable,3.5,-,N/A,,Overcast,0,2013-05-22 13:54:00
10:24 AM,73.4,69.8,88,29.93,5.0,WSW,5.8,-,N/A,,Haze,240,2013-05-22 14:24:00
10:54 AM,73.9,69.1,85,29.93,5.0,WSW,6.9,-,N/A,,Haze,250,2013-05-22 14:54:00
11:54 AM,75.9,69.1,79,29.92,5.0,SW,4.6,-,N/A,,Haze,230,2013-05-22 15:54:00
12:33 PM,77.0,69.8,78,29.91,6.0,Variable,3.5,-,N/A,,Haze,0,2013-05-22 16:33:00
12:54 PM,80.1,71.1,74,29.91,6.0,Variable,5.8,-,N/A,,Haze,0,2013-05-22 16:54:00
1:19 PM,80.6,69.8,70,29.89,7.0,Variable,4.6,-,N/A,,Scattered Clouds,0,2013-05-22 17:19:00
1:54 PM,82.9,70.0,65,29.89,8.0,SW,6.9,-,N/A,,Partly Cloudy,220,2013-05-22 17:54:00
2:54 PM,86.0,70.0,59,29.87,10.0,Variable,5.8,-,N/A,,Clear,0,2013-05-22 18:54:00
3:54 PM,86.0,69.1,57,29.86,10.0,SW,6.9,16.1,N/A,,Clear,220,2013-05-22 19:54:00
4:54 PM,84.9,68.0,57,29.85,10.0,Variable,5.8,-,N/A,,Clear,0,2013-05-22 20:54:00
5:54 PM,84.9,68.0,57,29.84,10.0,South,8.1,-,N/A,,Clear,180,2013-05-22 21:54:00
6:54 PM,82.0,70.0,67,29.85,8.0,Variable,6.9,-,N/A,,Clear,0,2013-05-22 22:54:00
7:54 PM,79.0,69.1,72,29.86,8.0,Variable,4.6,-,N/A,,Clear,0,2013-05-22 23:54:00
8:54 PM,77.0,68.0,74,29.87,9.0,Variable,4.6,-,N/A,,Clear,0,2013-05-23 00:54:00
9:54 PM,75.0,66.9,76,29.90,9.0,Variable,3.5,-,N/A,,Clear,0,2013-05-23 01:54:00
10:54 PM,73.0,66.9,81,29.91,9.0,South,4.6,-,N/A,,Mostly Cloudy,190,2013-05-23 02:54:00
11:54 PM,72.0,66.0,81,29.90,10.0,South,3.5,-,N/A,,Overcast,190,2013-05-23 03:54:00